�������l�o���
Date,Time,MP-1(��Sv/h),MP-2(��Sv/h),MP-3(��Sv/h),MP-4(��Sv/h),MP-5(��Sv/h),MP-6(��Sv/h),MP-7(��Sv/h),MP-8(��Sv/h),����,����(m/s),���J
2024/02/18,00:00,0.515,0.783,0.487,0.984,0.708,0.313,0.558,0.523,�쐼,1.1,��
2024/02/18,00:10,0.516,0.782,0.487,0.984,0.708,0.313,0.558,0.522,��,1.4,��
2024/02/18,00:20,0.515,0.783,0.488,0.983,0.707,0.311,0.558,0.523,��,1.2,��
2024/02/18,00:30,0.514,0.783,0.488,0.981,0.706,0.312,0.558,0.522,-,CALM,��
2024/02/18,00:40,0.516,0.782,0.487,0.984,0.708,0.312,0.558,0.523,-,CALM,��
2024/02/18,00:50,0.514,0.782,0.486,0.983,0.707,0.314,0.558,0.523,�k�k��,1.1,��
2024/02/18,01:00,0.515,0.783,0.487,0.983,0.707,0.312,0.557,0.522,�k�k��,1.9,��
2024/02/18,01:10,0.514,0.784,0.486,0.983,0.707,0.311,0.557,0.522,�k�k��,2.0,��
2024/02/18,01:20,0.517,0.783,0.488,0.982,0.708,0.312,0.558,0.523,�k�k��,1.7,��
2024/02/18,01:30,0.517,0.782,0.486,0.982,0.707,0.311,0.558,0.523,�k�k��,2.0,��
2024/02/18,01:40,0.515,0.783,0.487,0.983,0.708,0.313,0.559,0.522,�k�k��,2.5,��
2024/02/18,01:50,0.515,0.781,0.485,0.984,0.707,0.312,0.557,0.523,�k�k��,2.6,��
2024/02/18,02:00,0.515,0.784,0.488,0.982,0.706,0.311,0.557,0.522,�k�k��,3.1,��
2024/02/18,02:10,0.514,0.781,0.488,0.982,0.707,0.312,0.558,0.523,�k�k��,2.3,��
2024/02/18,02:20,0.515,0.783,0.486,0.984,0.706,0.311,0.558,0.523,�k,1.9,��
2024/02/18,02:30,0.514,0.783,0.486,0.984,0.707,0.311,0.557,0.523,�k�k��,2.0,��
2024/02/18,02:40,0.516,0.780,0.487,0.982,0.708,0.312,0.558,0.522,�k�k��,2.6,��
2024/02/18,02:50,0.515,0.782,0.486,0.984,0.707,0.313,0.557,0.523,�k�k��,2.2,��
2024/02/18,03:00,0.514,0.782,0.488,0.983,0.708,0.312,0.556,0.523,�k�k��,2.6,��
2024/02/18,03:10,0.516,0.783,0.488,0.983,0.707,0.313,0.559,0.522,�k�k��,3.3,��
2024/02/18,03:20,0.515,0.782,0.488,0.983,0.708,0.311,0.557,0.521,�k�k��,3.8,��
2024/02/18,03:30,0.515,0.783,0.488,0.981,0.706,0.312,0.558,0.523,�k�k��,3.5,��
2024/02/18,03:40,0.515,0.781,0.487,0.984,0.705,0.312,0.557,0.523,�k�k��,3.0,��
2024/02/18,03:50,0.514,0.781,0.486,0.984,0.706,0.311,0.558,0.522,�k�k��,3.2,��
2024/02/18,04:00,0.515,0.783,0.486,0.982,0.706,0.312,0.558,0.523,�k�k��,3.4,��
2024/02/18,04:10,0.514,0.780,0.486,0.981,0.706,0.313,0.558,0.522,�k�k��,3.5,��
2024/02/18,04:20,0.514,0.783,0.488,0.983,0.706,0.313,0.558,0.523,�k�k��,3.6,��
2024/02/18,04:30,0.516,0.780,0.486,0.981,0.705,0.311,0.556,0.522,�k,2.6,��
2024/02/18,04:40,0.514,0.782,0.487,0.981,0.705,0.312,0.558,0.523,�k�k��,2.0,��
2024/02/18,04:50,0.515,0.783,0.486,0.983,0.707,0.311,0.558,0.523,�k�k��,2.9,��
2024/02/18,05:00,0.514,0.781,0.486,0.984,0.705,0.312,0.556,0.523,�k�k��,2.9,��
2024/02/18,05:10,0.513,0.781,0.486,0.981,0.708,0.313,0.555,0.522,�k,2.8,��
2024/02/18,05:20,0.514,0.783,0.488,0.981,0.704,0.313,0.557,0.522,�k,3.3,��
2024/02/18,05:30,0.516,0.782,0.487,0.981,0.707,0.312,0.558,0.522,�k�k��,3.6,��
2024/02/18,05:40,0.514,0.782,0.487,0.983,0.706,0.312,0.558,0.524,�k,3.6,��
2024/02/18,05:50,0.515,0.781,0.487,0.981,0.707,0.313,0.556,0.521,�k,2.9,��
2024/02/18,06:00,0.515,0.781,0.486,0.983,0.706,0.313,0.558,0.523,�k,3.2,��
2024/02/18,06:10,0.514,0.780,0.487,0.984,0.705,0.313,0.557,0.521,�k�k��,3.4,��
2024/02/18,06:20,0.515,0.783,0.485,0.983,0.705,0.312,0.558,0.521,�k�k��,3.5,��
2024/02/18,06:30,0.513,0.780,0.488,0.983,0.706,0.312,0.557,0.522,�k�k��,3.0,��
2024/02/18,06:40,0.514,0.782,0.485,0.982,0.705,0.312,0.557,0.523,�k�k��,3.2,��
2024/02/18,06:50,0.513,0.782,0.487,0.982,0.704,0.311,0.558,0.522,�k�k��,2.3,��
2024/02/18,07:00,0.514,0.782,0.486,0.980,0.706,0.312,0.558,0.522,�k�k��,2.3,��
2024/02/18,07:10,0.513,0.783,0.487,0.982,0.706,0.311,0.558,0.523,�k�k��,2.6,��
2024/02/18,07:20,0.514,0.782,0.486,0.983,0.706,0.312,0.557,0.523,�k�k��,1.9,��
2024/02/18,07:30,0.515,0.782,0.486,0.983,0.706,0.313,0.557,0.523,�k�k��,0.9,��
2024/02/18,07:40,0.514,0.783,0.488,0.984,0.704,0.313,0.557,0.523,�k�k��,0.8,��
2024/02/18,07:50,0.516,0.781,0.486,0.985,0.705,0.312,0.558,0.523,�k,0.6,��
2024/02/18,08:00,0.515,0.783,0.486,0.982,0.705,0.312,0.557,0.524,-,CALM,��
2024/02/18,08:10,0.514,0.783,0.487,0.983,0.707,0.314,0.558,0.523,�쓌,1.1,��
2024/02/18,08:20,0.516,0.785,0.486,0.984,0.705,0.312,0.559,0.524,��쓌,1.9,��
2024/02/18,08:30,0.515,0.783,0.490,0.980,0.707,0.314,0.559,0.523,��쓌,2.6,��
2024/02/18,08:40,0.516,0.783,0.488,0.985,0.707,0.311,0.559,0.524,��,2.6,��
2024/02/18,08:50,0.516,0.783,0.488,0.984,0.706,0.312,0.560,0.525,��쓌,2.3,��
2024/02/18,09:00,0.517,0.782,0.489,0.984,0.707,0.313,0.560,0.523,��,1.9,��
2024/02/18,09:10,0.514,0.784,0.487,0.983,0.707,0.315,0.558,0.524,��쓌,2.3,��
2024/02/18,09:20,0.515,0.780,0.488,0.985,0.706,0.313,0.557,0.523,��쓌,3.3,��
2024/02/18,09:30,0.515,0.781,0.489,0.983,0.707,0.313,0.558,0.522,�쓌,3.0,��
2024/02/18,09:40,0.515,0.780,0.489,0.985,0.706,0.314,0.558,0.524,�쓌,3.1,��
2024/02/18,09:50,0.516,0.781,0.489,0.983,0.705,0.313,0.558,0.524,�쓌,3.2,��
2024/02/18,10:00,0.518,0.782,0.489,0.984,0.710,0.314,0.558,0.522,�쓌,3.0,��
2024/02/18,10:10,0.516,0.781,0.489,0.983,0.710,0.315,0.558,0.523,�쓌,4.3,��
2024/02/18,10:20,0.514,0.784,0.488,0.984,0.708,0.314,0.558,0.523,�쓌,4.0,��
2024/02/18,10:30,0.516,0.783,0.488,0.983,0.709,0.314,0.558,0.525,�쓌,4.0,��
2024/02/18,10:40,0.516,0.782,0.487,0.984,0.707,0.314,0.558,0.524,��쓌,4.7,��
2024/02/18,10:50,0.516,0.781,0.490,0.983,0.709,0.313,0.558,0.524,��쓌,4.6,��
2024/02/18,11:00,0.516,0.784,0.489,0.985,0.708,0.313,0.558,0.524,��쓌,5.5,��
2024/02/18,11:10,0.516,0.782,0.490,0.983,0.707,0.313,0.560,0.524,��쓌,7.5,��
2024/02/18,11:20,0.515,0.783,0.491,0.984,0.705,0.313,0.560,0.523,��쓌,7.9,��
2024/02/18,11:30,0.514,0.782,0.489,0.983,0.708,0.313,0.559,0.525,��쓌,9.2,��
2024/02/18,11:40,0.514,0.783,0.490,0.985,0.706,0.314,0.560,0.524,��쓌,8.7,��
2024/02/18,11:50,0.518,0.784,0.488,0.984,0.707,0.313,0.559,0.525,��쓌,8.8,��
2024/02/18,12:00,0.516,0.782,0.486,0.985,0.706,0.313,0.559,0.525,��쓌,8.7,��
2024/02/18,12:10,0.515,0.783,0.490,0.984,0.706,0.311,0.558,0.524,��쓌,9.5,��
2024/02/18,12:20,0.516,0.782,0.488,0.984,0.707,0.313,0.560,0.522,��쓌,10.2,��
2024/02/18,12:30,0.517,0.783,0.489,0.984,0.707,0.313,0.558,0.524,��,10.7,��
2024/02/18,12:40,0.519,0.784,0.489,0.984,0.707,0.313,0.559,0.523,��쓌,11.3,��
2024/02/18,12:50,0.516,0.783,0.486,0.986,0.706,0.314,0.559,0.524,��쓌,11.6,��
2024/02/18,13:00,0.516,0.783,0.489,0.985,0.708,0.313,0.559,0.520,��,9.8,��
2024/02/18,13:10,0.516,0.782,0.486,0.984,0.709,0.315,0.559,0.522,��쓌,11.8,��
2024/02/18,13:20,0.516,0.780,0.488,0.982,0.707,0.314,0.560,0.522,��쓌,12.2,��
2024/02/18,13:30,0.515,0.783,0.488,0.985,0.709,0.314,0.558,0.521,��,12.7,��
2024/02/18,13:40,0.515,0.783,0.488,0.985,0.706,0.315,0.560,0.522,��쓌,13.5,��
2024/02/18,13:50,0.516,0.783,0.488,0.984,0.706,0.315,0.559,0.521,��,11.3,��
2024/02/18,14:00,0.517,0.782,0.488,0.983,0.708,0.315,0.559,0.522,��,7.5,��
2024/02/18,14:10,0.516,0.783,0.489,0.985,0.710,0.317,0.559,0.522,��쓌,8.6,��
2024/02/18,14:20,0.517,0.782,0.487,0.987,0.709,0.316,0.559,0.522,��쓌,8.1,��
2024/02/18,14:30,0.516,0.783,0.489,0.985,0.708,0.315,0.560,0.523,��쓌,8.4,��
2024/02/18,14:40,0.516,0.783,0.489,0.983,0.706,0.315,0.561,0.522,��,9.9,��
2024/02/18,14:50,0.518,0.783,0.488,0.985,0.708,0.314,0.560,0.522,��,7.9,��
2024/02/18,15:00,0.515,0.785,0.488,0.986,0.707,0.315,0.560,0.523,��쓌,8.6,��
2024/02/18,15:10,0.515,0.784,0.487,0.985,0.708,0.314,0.560,0.524,��쓌,9.3,��
2024/02/18,15:20,0.518,0.782,0.488,0.984,0.707,0.315,0.559,0.522,��,7.8,��
2024/02/18,15:30,0.515,0.782,0.488,0.985,0.707,0.314,0.560,0.522,��,6.9,��
2024/02/18,15:40,0.515,0.782,0.489,0.981,0.710,0.315,0.561,0.521,��,6.8,��
2024/02/18,15:50,0.517,0.782,0.487,0.982,0.708,0.315,0.559,0.522,��,6.3,��
2024/02/18,16:00,0.517,0.784,0.488,0.981,0.709,0.315,0.560,0.522,��,6.4,��
2024/02/18,16:10,0.515,0.783,0.488,0.979,0.709,0.316,0.560,0.522,��,7.3,��
2024/02/18,16:20,0.516,0.785,0.488,0.982,0.706,0.316,0.561,0.523,��,7.3,��
2024/02/18,16:30,0.515,0.784,0.487,0.981,0.708,0.315,0.560,0.523,��,8.3,��
2024/02/18,16:40,0.516,0.782,0.489,0.982,0.707,0.316,0.560,0.524,��,8.5,��
2024/02/18,16:50,0.515,0.783,0.488,0.983,0.707,0.316,0.560,0.524,��,7.2,��
2024/02/18,17:00,0.514,0.783,0.488,0.981,0.709,0.317,0.561,0.525,��,8.5,��
2024/02/18,17:10,0.515,0.784,0.488,0.984,0.708,0.315,0.560,0.526,��,8.1,��
2024/02/18,17:20,0.516,0.784,0.489,0.986,0.708,0.316,0.560,0.526,��,7.8,��
2024/02/18,17:30,0.517,0.784,0.489,0.987,0.710,0.315,0.559,0.526,��,8.1,��
2024/02/18,17:40,0.516,0.785,0.489,0.985,0.708,0.315,0.560,0.524,��,7.4,��
2024/02/18,17:50,0.517,0.785,0.491,0.984,0.709,0.316,0.559,0.523,��,7.0,��
2024/02/18,18:00,0.517,0.786,0.488,0.984,0.709,0.315,0.560,0.525,��,6.6,��
2024/02/18,18:10,0.520,0.787,0.491,0.986,0.710,0.315,0.562,0.524,��,5.7,��
2024/02/18,18:20,0.519,0.786,0.491,0.983,0.711,0.316,0.562,0.525,��,5.5,��
2024/02/18,18:30,0.518,0.785,0.489,0.983,0.709,0.314,0.561,0.524,��쐼,4.8,��
2024/02/18,18:40,0.517,0.786,0.489,0.985,0.710,0.315,0.562,0.523,��,5.0,��
2024/02/18,18:50,0.516,0.787,0.490,0.986,0.711,0.315,0.560,0.525,��,5.8,��
2024/02/18,19:00,0.517,0.784,0.490,0.984,0.710,0.314,0.563,0.522,��쐼,5.5,��
2024/02/18,19:10,0.518,0.787,0.490,0.986,0.711,0.314,0.559,0.523,��쐼,5.9,��
2024/02/18,19:20,0.517,0.786,0.491,0.986,0.709,0.315,0.562,0.525,��쐼,6.8,��
2024/02/18,19:30,0.518,0.784,0.491,0.986,0.710,0.316,0.561,0.523,��쐼,7.1,��
2024/02/18,19:40,0.517,0.786,0.490,0.984,0.710,0.314,0.561,0.524,��쐼,6.5,��
2024/02/18,19:50,0.518,0.784,0.489,0.987,0.710,0.315,0.561,0.523,��쐼,5.9,��
2024/02/18,20:00,0.518,0.784,0.491,0.985,0.711,0.316,0.559,0.523,��쐼,7.4,��
2024/02/18,20:10,0.517,0.784,0.490,0.984,0.710,0.315,0.561,0.524,��쐼,8.0,��
2024/02/18,20:20,0.517,0.786,0.491,0.986,0.710,0.314,0.562,0.523,��쐼,8.3,��
2024/02/18,20:30,0.517,0.783,0.490,0.987,0.711,0.317,0.561,0.523,��쐼,8.3,��
2024/02/18,20:40,0.518,0.785,0.490,0.985,0.708,0.315,0.561,0.525,��쐼,7.4,��
2024/02/18,20:50,0.518,0.787,0.489,0.986,0.709,0.315,0.562,0.524,��쐼,7.9,��
2024/02/18,21:00,0.516,0.785,0.489,0.982,0.708,0.315,0.560,0.524,��쐼,8.2,��
2024/02/18,21:10,0.519,0.786,0.490,0.983,0.710,0.314,0.562,0.524,��쐼,7.8,��
2024/02/18,21:20,0.516,0.784,0.491,0.985,0.710,0.315,0.561,0.522,��쐼,6.8,��
2024/02/18,21:30,0.516,0.784,0.492,0.985,0.711,0.314,0.561,0.524,��,5.1,��
2024/02/18,21:40,0.517,0.785,0.489,0.984,0.709,0.314,0.560,0.522,��,5.1,��
2024/02/18,21:50,0.519,0.784,0.490,0.987,0.710,0.316,0.562,0.524,��,7.0,��
2024/02/18,22:00,0.518,0.784,0.488,0.985,0.709,0.314,0.561,0.522,��,7.7,��
2024/02/18,22:10,0.517,0.787,0.490,0.985,0.709,0.314,0.560,0.525,��,7.2,��
2024/02/18,22:20,0.518,0.784,0.488,0.983,0.711,0.315,0.560,0.524,��,7.7,��
2024/02/18,22:30,0.519,0.783,0.490,0.983,0.709,0.314,0.561,0.524,��,7.7,��
2024/02/18,22:40,0.518,0.786,0.488,0.983,0.710,0.314,0.561,0.523,��,7.8,��
2024/02/18,22:50,0.519,0.784,0.489,0.983,0.708,0.314,0.560,0.525,��,8.3,��
2024/02/18,23:00,0.518,0.784,0.491,0.985,0.711,0.313,0.562,0.523,��,8.2,��
2024/02/18,23:10,0.517,0.783,0.489,0.985,0.710,0.314,0.560,0.524,��,9.0,��
2024/02/18,23:20,0.517,0.785,0.489,0.983,0.710,0.315,0.562,0.524,��,8.8,��
2024/02/18,23:30,0.516,0.784,0.489,0.986,0.709,0.314,0.562,0.524,��,9.1,��
2024/02/18,23:40,0.519,0.783,0.488,0.984,0.710,0.314,0.561,0.523,��,9.1,��
2024/02/18,23:50,0.516,0.785,0.489,0.984,0.710,0.315,0.561,0.524,��,9.4,��
